GW7138 Weather Reports


Display with metric or nautical units.
time (UTC)temp
F
wind
direction
speed
MPH
gust
MPH
rain 1hr
in
rain 24hr
in
rain mn
in
humidity
%
barometer
mb
20260505041451 77 267 0.0 0.0 0.00 1.46 1.46 97 1009.6
20260505040948 77 267 0.0 0.0 0.00 1.46 1.46 97 1009.6
20260505040446 77 267 0.0 0.0 0.00 1.45 1.45 97 1009.6
20260505035942 77 267 0.0 0.0 0.00 1.44 1.44 97 1009.6
20260505035438 77 267 0.0 0.0 0.00 1.43 1.43 97 1009.6
20260505034936 77 267 0.0 0.0 0.00 1.43 1.43 97 1009.6
20260505034432 77 267 2.0 5.0 0.00 1.43 1.43 97 1009.6
20260505033929 77 30 0.0 0.0 0.00 1.42 1.42 96 1009.6
20260505033426 77 51 0.0 0.0 0.00 1.40 1.40 96 1009.6
20260505032924 77 51 1.0 3.0 0.00 1.40 1.40 96 1009.3
20260505032421 77 51 4.0 6.0 0.00 1.39 1.39 97 1009.6
20260505031918 77 51 0.0 0.0 0.00 1.39 1.39 97 1009.3
20260505031414 77 51 0.0 0.0 0.00 1.38 1.38 97 1009.3
20260505030911 77 51 0.0 0.0 0.00 1.37 1.37 97 1009.3
20260505030407 77 51 0.0 0.0 0.00 1.36 1.36 97 1009.0
20260505025902 76 51 0.0 0.0 0.00 1.36 1.36 97 1009.0
20260505025400 77 51 0.0 0.0 0.00 1.35 1.35 97 1009.0
20260505024859 77 51 0.0 0.0 0.00 1.35 1.35 97 1009.0
20260505024356 76 51 0.0 0.0 0.00 1.35 1.35 97 1009.0
20260505023853 76 51 0.0 0.0 0.47 1.32 1.32 96 1009.0
20260505023350 76 51 0.0 4.0 0.47 1.29 1.29 96 1009.3
20260505022847 76 68 4.0 5.0 0.47 1.27 1.27 96 1009.3
20260505022344 76 330 0.0 0.0 0.00 1.22 1.22 96 1009.3
20260505021842 76 330 0.0 0.0 0.47 1.18 1.18 96 1009.3
20260505021338 76 330 0.0 2.0 1.42 1.12 1.12 96 1009.3
20260505020834 75 352 6.0 9.0 0.94 0.95 0.95 96 1009.3
20260505020330 76 279 8.0 11.0 3.78 0.78 0.78 94 1009.3
20260505015827 78 273 12.0 15.0 2.36 0.50 0.50 94 1009.0
20260505015324 78 36 0.0 2.0 0.47 0.41 0.41 94 1009.3
20260505014821 78 36 0.0 0.0 0.47 0.39 0.39 94 1009.0
20260505014318 78 36 0.0 0.0 0.00 0.39 0.39 94 1009.3
20260505013814 79 36 0.0 0.0 0.47 0.38 0.38 94 1009.3
20260505013312 80 33 4.0 7.0 2.36 0.09 0.09 91 1009.3
20260505012810 80 33 4.0 7.0 2.36 0.09 0.09 91 1009.3
20260505012307 80 44 7.0 9.0 0.00 0.06 0.06 91 1009.3
20260505011803 80 104 4.0 7.0 0.00 0.06 0.06 90 1009.0
20260505011300 80 36 2.0 4.0 0.00 0.06 0.06 90 1009.3
20260505010756 80 8 0.0 0.0 0.00 0.06 0.06 91 1009.3
20260505010252 80 3 0.0 3.0 0.00 0.06 0.06 90 1009.3
20260505005748 80 11 2.0 5.0 0.00 0.05 0.05 90 1009.6
20260505005246 80 172 6.0 6.0 0.00 0.05 0.05 89 1009.6
20260505004743 80 150 7.0 11.0 0.00 0.05 0.05 89 1009.3
20260505004239 81 123 8.0 11.0 0.00 0.05 0.05 88 1009.6
20260505003736 82 131 6.0 7.0 0.00 0.05 0.05 87 1009.6
20260505003234 83 143 1.0 4.0 0.00 0.03 0.03 84 1009.6
20260505002730 84 175 3.0 5.0 0.00 0.03 0.03 83 1009.6
20260505002228 84 169 6.0 10.0 0.00 0.03 0.03 82 1009.6
20260505001725 85 166 5.0 8.0 0.00 0.03 0.03 81 1009.6
20260505001223 85 166 6.0 9.0 0.00 0.03 0.03 81 1009.6
20260505000719 84 158 11.0 14.0 0.00 0.03 0.03 80 1009.6
20260505000218 87 138 12.0 14.0 0.00 0.03 0.03 74 1009.3
20260504235713 90 244 0.0 3.0 0.00 0.03 0.03 65 1009.6
20260504235209 89 236 3.0 6.0 0.00 0.03 0.03 67 1009.6
20260504234707 90 241 8.0 10.0 0.00 0.03 0.03 67 1009.6
20260504234204 91 248 5.0 9.0 0.00 0.03 0.03 67 1009.6
20260504233700 90 202 2.0 8.0 0.00 0.03 0.03 69 1009.6
20260504233156 87 78 0.0 3.0 0.00 0.03 0.03 74 1009.6
20260504232654 86 94 2.0 6.0 0.00 0.03 0.03 76 1010.0
20260504232150 86 97 7.0 9.0 0.00 0.03 0.03 75 1009.6
20260504231647 87 57 2.0 6.0 0.00 0.03 0.03 75 1009.6
20260504231144 86 66 4.0 8.0 0.00 0.03 0.03 76 1009.6
20260504230640 86 91 4.0 6.0 0.00 0.03 0.03 76 1009.6
20260504230139 86 68 4.0 8.0 0.00 0.03 0.03 77 1009.6
20260504225637 87 90 1.0 4.0 0.00 0.03 0.03 75 1010.3
20260504225132 87 153 0.0 0.0 0.00 0.03 0.03 74 1010.3
20260504224629 88 153 3.0 4.0 0.00 0.03 0.03 74 1010.3
20260504224126 87 153 0.0 0.0 0.00 0.03 0.03 76 1010.3
20260504223623 86 153 0.0 0.0 0.00 0.03 0.03 77 1010.7
20260504223119 87 153 0.0 0.0 0.00 0.03 0.03 77 1010.7
20260504222616 85 153 3.0 5.0 0.00 0.03 0.03 80 1010.7
20260504222114 84 122 4.0 6.0 0.00 0.03 0.03 81 1010.7
20260504221611 85 121 5.0 6.0 0.00 0.03 0.03 81 1010.7
20260504221108 85 109 4.0 5.0 0.00 0.03 0.03 80 1010.7
20260504220604 84 114 5.0 7.0 0.00 0.03 0.03 81 1011.0
20260504220101 86 122 4.0 4.0 0.00 0.03 0.03 77 1011.0
20260504215557 88 232 0.0 0.0 0.00 0.03 0.03 73 1011.3
20260504215055 88 232 0.0 0.0 0.00 0.03 0.03 73 1011.3
20260504214550 88 232 0.0 0.0 0.00 0.03 0.03 74 1011.3
20260504214047 88 232 0.0 0.0 0.00 0.03 0.03 73 1011.3
20260504213544 88 232 1.0 4.0 0.00 0.03 0.03 73 1011.3
20260504213041 88 232 1.0 4.0 0.00 0.03 0.03 74 1011.7
20260504212537 88 206 0.0 0.0 0.00 0.03 0.03 75 1011.3
20260504212034 87 206 0.0 4.0 0.00 0.03 0.03 75 1011.7
20260504211531 87 206 0.0 0.0 0.00 0.03 0.03 74 1011.7
20260504211028 87 206 0.0 0.0 0.00 0.03 0.03 74 1011.3
20260504210525 87 206 0.0 4.0 0.00 0.03 0.03 76 1011.7
20260504210022 87 202 0.0 4.0 0.00 0.03 0.03 76 1011.7
20260504205520 86 204 0.0 0.0 0.00 0.03 0.03 76 1011.7
20260504205017 86 237 4.0 6.0 0.00 0.03 0.03 76 1011.7
20260504204515 87 258 4.0 6.0 0.00 0.03 0.03 76 1011.7
20260504204014 87 250 4.0 8.0 0.00 0.03 0.03 75 1011.7
20260504203512 88 247 4.0 9.0 0.00 0.03 0.03 73 1011.7
20260504203009 88 264 0.0 1.0 0.00 0.03 0.03 76 1011.7
20260504202504 87 264 0.0 0.0 0.00 0.03 0.03 78 1011.3
20260504202001 89 264 0.0 0.0 0.00 0.03 0.03 73 1011.3
20260504201458 90 264 0.0 0.0 0.00 0.03 0.03 72 1011.3
20260504200955 89 264 0.0 0.0 0.00 0.03 0.03 76 1011.3
20260504200452 87 264 0.0 0.0 0.00 0.03 0.03 81 1011.7
20260504195949 85 264 0.0 0.0 0.00 0.03 0.03 85 1011.7
20260504195445 83 264 0.0 0.0 0.00 0.03 0.03 88 1011.7
20260504194942 82 264 0.0 0.0 0.00 0.03 0.03 90 1012.0
20260504194438 82 264 0.0 0.0 0.00 0.03 0.03 90 1012.0
20260504193934 81 264 0.0 0.0 0.00 0.03 0.03 91 1011.7
20260504193431 81 264 0.0 0.0 0.00 0.03 0.03 92 1011.3
20260504192930 80 264 0.0 2.0 0.00 0.03 0.03 92 1011.7
20260504192426 80 264 0.0 0.0 0.00 0.03 0.03 93 1011.7
20260504191926 80 264 0.0 0.0 0.00 0.03 0.03 94 1011.7
20260504191423 79 264 0.0 0.0 0.00 0.03 0.03 94 1011.7
20260504190918 79 265 1.0 4.0 0.00 0.03 0.03 95 1011.7
20260504190414 79 187 0.0 0.0 0.00 0.03 0.03 96 1011.7
20260504185911 79 187 0.0 0.0 0.00 0.03 0.03 96 1011.7
20260504185408 79 187 0.0 0.0 0.00 0.03 0.03 96 1011.7
20260504184904 79 187 0.0 0.0 0.00 0.03 0.03 96 1011.7
20260504184400 79 187 0.0 0.0 0.00 0.03 0.03 96 1011.7
20260504183856 79 187 0.0 0.0 0.00 0.03 0.03 96 1011.3
20260504183354 79 187 0.0 0.0 0.00 0.03 0.03 96 1011.3
20260504182851 79 187 0.0 0.0 0.00 0.03 0.03 95 1011.3
20260504182348 78 187 0.0 0.0 0.00 0.03 0.03 95 1011.3
20260504181845 79 187 0.0 0.0 0.00 0.03 0.03 95 1011.3
20260504181342 78 11 0.0 0.0 0.00 0.03 0.03 95 1011.3
20260504180841 78 235 0.0 0.0 0.00 0.02 0.02 95 1011.3
20260504180339 78 274 0.0 0.0 0.00 0.02 0.02 95 1011.3
20260504175837 78 274 0.0 0.0 0.00 0.01 0.01 96 1011.0
20260504175333 78 277 2.0 5.0 0.00 0.01 0.01 96 1010.7
20260504174832 78 280 3.0 5.0 0.00 0.01 0.01 96 1010.7
20260504174329 78 280 4.0 6.0 0.00 0.01 0.01 96 1010.7
20260504173826 77 267 2.0 5.0 0.00 0.01 0.01 96 1010.7
20260504173322 77 267 1.0 3.0 0.00 0.01 0.01 96 1010.7
20260504172820 77 267 0.0 1.0 0.00 0.01 0.01 96 1010.7
20260504172316 77 262 3.0 5.0 0.00 0.01 0.01 96 1010.3
20260504171812 77 262 0.0 0.0 0.00 0.01 0.01 96 1010.0
20260504171309 77 262 0.0 3.0 0.00 0.01 0.01 96 1010.3
20260504170806 78 262 0.0 0.0 0.00 0.01 0.01 96 1010.3
20260504170303 78 262 0.0 0.0 0.00 0.01 0.01 96 1010.3
20260504160221 78 262 0.0 0.0 0.00 0.01 0.01 96 1010.0
20260504151150 78 284 0.0 0.0 0.00 0.01 0.01 96 1010.0
20260504150647 78 284 0.0 0.0 0.00 0.01 0.01 96 1010.0
20260504150144 78 284 0.0 0.0 0.00 0.01 0.01 96 1010.0
20260504141113 77 272 0.0 0.0 0.00 0.00 0.00 96 1011.0
20260504140609 77 272 0.0 4.0 0.00 0.00 0.00 96 1011.0
20260504140105 77 272 0.0 0.0 0.00 0.00 0.00 96 1011.0
20260504130533 78 272 1.0 4.0 0.00 0.00 0.00 96 1011.3
20260504110421 77 272 0.0 0.0 0.00 0.00 0.00 96 1012.0
20260504100337 77 272 0.0 0.0 0.00 0.90 0.90 96 1012.0
20260504081731 77 272 0.0 0.0 0.00 0.90 0.90 95 1012.0
20260504081227 77 272 0.0 3.0 0.00 0.90 0.90 95 1012.0
20260504080724 77 272 3.0 4.0 0.00 0.90 0.90 95 1012.0
20260504080220 77 272 0.0 0.0 0.00 0.90 0.90 95 1012.0
20260504070148 78 145 0.0 0.0 0.00 0.90 0.90 93 1011.0
20260504060108 76 281 0.0 0.0 0.00 0.90 0.90 95 1010.7
20260504050537 77 281 0.0 0.0 0.00 0.90 0.90 93 1010.7
20260504045530 78 281 0.0 3.0 0.00 0.90 0.90 92 1010.7
20260504045026 78 278 3.0 5.0 0.00 0.90 0.90 92 1010.7